Tracking 19219 objects as of 20-Jul-2018
HD Live streaming from Space Station
objects crossing your sky now

ECAMSAT

Track ECAMSAT now!
10-day predictions
ECAMSAT is classified as:


NORAD ID: 43019
Int'l Code: 1998-067NG
Perigee: 399.3 km
Apogee: 405.5 km
Inclination: 51.6 °
Period: 92.5 minutes
Semi major axis: 6773 km
RCS: Unknown
Launch date: November 20, 1998
Source: United States (US)
Launch site: TYURATAM MISSILE AND SPACE COMPLEX (TTMTR)
Uplink (MHz):
Downlink (MHz): 437.095
Beacon (MHz):
Mode: 1200bps AFSK
Call sign: KE6QLL
Status: Inactive

aabbcc
Your satellite tracking list
Your tracking list is empty




NASA's NSSDC Master Catalog

Two Line Element Set (TLE):
1 43019U 98067NG  18200.43411907 +.00003603 +00000-0 +54965-4 0  9992
2 43019 051.6388 214.4468 0004568 300.0060 060.0479 15.57368018123579
Source of the keplerian elements: AFSPC